Location: Belvedere Heights
(33.9836°N, 117.3109°W)
Time: 18:39:36
(UTC+00:00)

Atlas Centaur 2 - Pass Details

Date: 08 December 2023
Orbit: 458 x 1281 km, 30.4° (Epoch: 03 March)

Event Time Altitude Azimuth Distance (km) Brightness Sun altitude
Exits shadow 13:03:14 25° 204° (SSW) 960 2.4 -20.0°
Maximum altitude 13:04:26 31° 166° (SSE) 813 2.4 -19.7°
Drops below altitude 10° 13:07:42 10° 102° (ESE) 1,629 5.0 -19.1°
Sets 13:10:06 0° 92° (E) 2,571 6.2 -18.6°
